CW1509 Weather Reports


Display with metric or nautical units.
time (UTC)temp
F
wind
direction
speed
MPH
gust
MPH
rain 1hr
in
rain 24hr
in
rain mn
in
humidity
%
barometer
mb
20260504234440 71 239 3.0 9.0 0.00 0.07 0.07 59 999.4
20260504233922 71 246 4.0 12.0 0.00 0.07 0.07 59 999.4
20260504233424 71 211 6.0 14.0 0.00 0.07 0.07 59 999.2
20260504232928 71 237 4.0 16.0 0.00 0.07 0.07 59 999.4
20260504232429 71 232 3.0 8.0 0.00 0.07 0.07 60 999.5
20260504231912 72 224 3.0 10.0 0.00 0.07 0.07 60 999.6
20260504231412 72 236 4.0 8.0 0.00 0.07 0.07 59 999.6
20260504230912 72 251 4.0 12.0 0.00 0.07 0.07 59 999.6
20260504230413 72 242 4.0 14.0 0.00 0.07 0.07 60 999.7
20260504225914 72 214 6.0 13.0 0.00 0.07 0.07 58 999.7
20260504225416 73 234 6.0 12.0 0.00 0.07 0.07 57 999.6
20260504224917 73 265 5.0 11.0 0.00 0.07 0.07 56 999.6
20260504224416 72 171 6.0 11.0 0.00 0.07 0.07 56 999.6
20260504223917 73 223 2.0 18.0 0.00 0.07 0.07 56 999.7
20260504223418 73 240 7.0 18.0 0.00 0.07 0.07 54 999.7
20260504222919 73 203 8.0 17.0 0.00 0.07 0.07 53 999.7
20260504222441 73 222 8.0 17.0 0.00 0.07 0.07 52 999.7
20260504221921 73 80 7.0 17.0 0.00 0.07 0.07 51 999.4
20260504221440 73 184 5.0 12.0 0.07 0.07 0.07 52 999.5
20260504220920 73 230 5.0 12.0 0.07 0.07 0.07 52 999.5
20260504220441 73 161 6.0 12.0 0.07 0.07 0.07 52 999.3
20260504215921 72 256 6.0 13.0 0.07 0.07 0.07 53 999.4
20260504215442 72 265 6.0 13.0 0.07 0.07 0.07 54 999.6
20260504214922 71 269 5.0 14.0 0.07 0.07 0.07 57 999.6
20260504214424 71 251 4.0 12.0 0.07 0.07 0.07 63 999.6
20260504213924 71 219 4.0 8.0 0.07 0.07 0.07 63 999.6
20260504213425 71 212 3.0 6.0 0.07 0.07 0.07 63 999.6
20260504212922 72 360 2.0 5.0 0.07 0.07 0.07 61 999.7
20260504212420 73 360 1.0 13.0 0.07 0.07 0.07 58 999.7
20260504211916 75 202 4.0 16.0 0.07 0.07 0.07 55 999.9
20260504211414 77 244 8.0 13.0 0.00 0.00 0.00 42 999.7
20260504210932 77 257 4.0 12.0 0.00 0.00 0.00 43 999.4
20260504210451 77 220 6.0 17.0 0.00 0.00 0.00 43 999.7
20260504205950 78 294 5.0 17.0 0.00 0.00 0.00 41 999.7
20260504205430 78 153 3.0 13.0 0.00 0.00 0.00 42 999.6
20260504204922 78 236 8.0 14.0 0.00 0.00 0.00 41 999.7
20260504204420 78 216 5.0 14.0 0.00 0.00 0.00 40 999.8
20260504203921 79 182 6.0 16.0 0.00 0.00 0.00 38 999.7
20260504203422 79 207 8.0 16.0 0.00 0.00 0.00 36 999.7
20260504202921 79 249 8.0 14.0 0.00 0.00 0.00 35 999.7
20260504202422 79 213 8.0 15.0 0.00 0.00 0.00 36 999.8
20260504201922 79 274 8.0 15.0 0.00 0.00 0.00 37 999.8
20260504201425 79 249 4.0 16.0 0.00 0.00 0.00 39 999.8
20260504201007 79 232 5.0 16.0 0.00 0.00 0.00 39 999.8
20260504200416 79 248 6.0 15.0 0.00 0.00 0.00 39 999.9
20260504195915 79 248 5.0 13.0 0.00 0.00 0.00 39 999.9
20260504195415 79 269 6.0 13.0 0.00 0.00 0.00 41 1000.0
20260504194915 78 219 5.0 14.0 0.00 0.00 0.00 40 1000.1
20260504194435 79 234 6.0 15.0 0.00 0.00 0.00 40 1000.1
20260504193914 78 227 6.0 12.0 0.00 0.00 0.00 40 1000.2
20260504193413 78 223 5.0 14.0 0.00 0.00 0.00 40 1000.5
20260504192914 78 239 6.0 14.0 0.00 0.00 0.00 40 1000.4
20260504192414 78 243 6.0 14.0 0.00 0.00 0.00 40 1000.4
20260504191930 78 257 5.0 14.0 0.00 0.00 0.00 41 1000.7
20260504191451 78 261 5.0 11.0 0.00 0.00 0.00 43 1000.7
20260504190932 77 155 6.0 10.0 0.00 0.00 0.00 43 1000.8
20260504190413 77 235 3.0 10.0 0.00 0.00 0.00 47 1000.9
20260504185933 77 188 6.0 13.0 0.00 0.00 0.00 44 1001.0
20260504185452 76 219 7.0 13.0 0.00 0.00 0.00 44 1001.0
20260504184931 77 219 7.0 13.0 0.00 0.00 0.00 44 1001.2
20260504184431 76 178 5.0 12.0 0.00 0.00 0.00 47 1001.1
20260504183931 77 223 4.0 18.0 0.00 0.00 0.00 46 1001.2
20260504183431 77 189 4.0 9.0 0.00 0.00 0.00 44 1001.2
20260504182930 77 165 5.0 9.0 0.00 0.00 0.00 45 1001.2
20260504182426 77 231 5.0 12.0 0.00 0.00 0.00 46 1001.4
20260504181926 76 250 7.0 12.0 0.00 0.00 0.00 45 1001.5
20260504181426 76 265 6.0 15.0 0.00 0.00 0.00 46 1001.4
20260504180926 76 98 6.0 15.0 0.00 0.00 0.00 46 1001.4
20260504180426 76 256 4.0 15.0 0.00 0.00 0.00 45 1001.3
20260504175924 76 254 7.0 15.0 0.00 0.00 0.00 46 1001.4
20260504175415 76 139 5.0 14.0 0.00 0.00 0.00 47 1001.6
20260504174917 76 161 7.0 10.0 0.00 0.00 0.00 45 1001.7
20260504174418 76 217 3.0 8.0 0.00 0.00 0.00 46 1001.6
20260504173939 75 207 3.0 8.0 0.00 0.00 0.00 46 1001.7
20260504173420 75 183 3.0 8.0 0.00 0.00 0.00 46 1001.7
20260504172929 75 222 2.0 9.0 0.00 0.00 0.00 48 1001.8
20260504172429 74 150 5.0 9.0 0.00 0.00 0.00 48 1002.0
20260504171928 74 261 5.0 9.0 0.00 0.00 0.00 46 1002.0
20260504171428 75 172 6.0 11.0 0.00 0.00 0.00 46 1002.2
20260504170927 74 223 4.0 12.0 0.00 0.00 0.00 45 1002.2
20260504170427 74 190 5.0 15.0 0.00 0.00 0.00 44 1002.4
20260504160431 71 221 5.0 11.0 0.00 0.00 0.00 46 1003.3
20260504150928 66 227 3.0 6.0 0.00 0.00 0.00 56 1003.7
20260504150428 66 193 4.0 10.0 0.00 0.00 0.00 56 1003.7
20260504140927 63 240 2.0 7.0 0.00 0.00 0.00 60 1004.5
20260504140428 63 115 2.0 6.0 0.00 0.00 0.00 60 1004.5
20260504130429 58 258 3.0 5.0 0.00 0.00 0.00 68 1004.8
20260504110435 51 360 2.0 8.0 0.00 0.00 0.00 77 1005.2
20260504100415 51 360 2.0 5.0 0.00 0.00 0.00 77 1004.9
20260504081924 51 360 0.0 2.0 0.00 0.00 0.00 75 1004.9
20260504081548 51 360 0.0 0.0 0.00 0.00 0.00 74 1005.0
20260504080931 51 360 0.0 3.0 0.00 0.00 0.00 74 1004.9
20260504080430 51 360 0.0 3.0 0.00 0.00 0.00 75 1005.0
20260504050422 54 360 2.0 6.0 0.00 0.00 0.00 69 1007.4
20260504045921 54 360 2.0 8.0 0.00 0.00 0.00 69 1007.3
20260504045421 54 360 4.0 8.0 0.00 0.00 0.00 69 1007.4
20260504044919 54 360 2.0 5.0 0.00 0.00 0.00 69 1007.3
20260504044418 54 360 2.0 5.0 0.00 0.00 0.00 69 1007.3
20260504043920 54 360 2.0 5.0 0.00 0.00 0.00 69 1007.3
20260504043417 54 360 2.0 4.0 0.00 0.00 0.00 69 1007.2
20260504042916 54 360 3.0 4.0 0.00 0.00 0.00 70 1007.3
20260504042435 54 360 2.0 5.0 0.00 0.00 0.00 70 1007.3
20260504041951 53 360 2.0 5.0 0.00 0.00 0.00 70 1007.4
20260504041413 53 360 1.0 9.0 0.00 0.00 0.00 70 1007.3
20260504040928 53 360 3.0 9.0 0.00 0.00 0.00 70 1007.2
20260504040413 53 360 2.0 5.0 0.00 0.00 0.00 70 1007.4
20260504035929 53 360 2.0 5.0 0.00 0.00 0.00 70 1007.4
20260504035427 53 360 2.0 5.0 0.00 0.00 0.00 70 1007.5
20260504034926 53 360 0.0 4.0 0.00 0.00 0.00 70 1007.6
20260504034424 53 360 0.0 5.0 0.00 0.00 0.00 70 1007.7
20260504033945 53 360 0.0 5.0 0.00 0.00 0.00 70 1007.6
20260504033425 53 360 1.0 5.0 0.00 0.00 0.00 71 1007.6
20260504032925 53 360 0.0 3.0 0.00 0.00 0.00 71 1007.7
20260504032425 53 360 1.0 4.0 0.00 0.00 0.00 71 1007.7
20260504031927 53 360 0.0 5.0 0.00 0.00 0.00 71 1007.7
20260504031424 53 360 1.0 5.0 0.00 0.00 0.00 71 1007.7
20260504030924 53 360 2.0 5.0 0.00 0.00 0.00 71 1007.7
20260504030424 53 360 2.0 4.0 0.00 0.00 0.00 72 1007.6
20260504025923 52 360 1.0 4.0 0.00 0.00 0.00 72 1007.6
20260504025425 52 360 2.0 5.0 0.00 0.00 0.00 73 1007.8
20260504024946 52 360 1.0 4.0 0.00 0.00 0.00 73 1007.7
20260504024421 52 360 0.0 4.0 0.00 0.00 0.00 74 1007.8
20260504023923 52 360 1.0 4.0 0.00 0.00 0.00 74 1007.8
20260504023424 52 360 2.0 4.0 0.00 0.00 0.00 75 1007.8
20260504022927 52 360 1.0 6.0 0.00 0.00 0.00 75 1007.8
20260504022422 52 360 0.0 6.0 0.00 0.00 0.00 76 1007.7
20260504021923 52 360 1.0 5.0 0.00 0.00 0.00 76 1007.6
20260504021424 52 360 1.0 5.0 0.00 0.00 0.00 76 1007.5
20260504020944 52 360 0.0 2.0 0.00 0.00 0.00 76 1007.5
20260504020425 52 360 0.0 5.0 0.00 0.00 0.00 76 1007.5
20260504015946 52 360 1.0 5.0 0.00 0.00 0.00 76 1007.5
20260504015426 53 360 0.0 1.0 0.00 0.00 0.00 75 1007.5
20260504014928 53 360 0.0 2.0 0.00 0.00 0.00 76 1007.5
20260504014430 53 360 0.0 4.0 0.00 0.00 0.00 75 1007.6
20260504013932 53 360 2.0 4.0 0.00 0.00 0.00 75 1007.6
20260504013415 53 360 1.0 4.0 0.00 0.00 0.00 75 1007.6
20260504012916 53 360 1.0 6.0 0.00 0.00 0.00 75 1007.6
20260504012438 53 360 2.0 6.0 0.00 0.00 0.00 75 1007.6
20260504011914 53 360 1.0 3.0 0.00 0.00 0.00 74 1007.6
20260504011416 53 360 0.0 3.0 0.00 0.00 0.00 74 1007.7
20260504010917 53 360 0.0 6.0 0.00 0.00 0.00 74 1007.7
20260504010440 54 360 1.0 6.0 0.00 0.00 0.00 74 1007.6
20260504005918 54 360 1.0 3.0 0.00 0.00 0.00 73 1007.7
20260504005418 54 360 1.0 4.0 0.00 0.00 0.00 73 1007.7
20260504004939 54 360 2.0 4.0 0.00 0.00 0.00 72 1007.8
20260504004417 54 360 1.0 3.0 0.00 0.00 0.00 72 1007.9
20260504003937 54 360 1.0 3.0 0.00 0.00 0.00 71 1007.8
20260504003416 54 360 1.0 3.0 0.00 0.00 0.00 71 1007.8
20260504002916 55 360 0.0 2.0 0.00 0.00 0.00 70 1007.8
20260504002415 55 360 0.0 12.0 0.00 0.00 0.00 70 1007.9
20260504001936 55 360 2.0 12.0 0.00 0.00 0.00 69 1007.8
20260504001415 55 360 2.0 8.0 0.00 0.00 0.00 69 1008.0
20260504000914 55 360 2.0 6.0 0.00 0.00 0.00 68 1007.9
20260504000416 55 360 2.0 9.0 0.00 0.00 0.00 68 1008.0
20260503235933 56 360 3.0 11.0 0.00 0.00 0.00 67 1008.0
20260503235431 56 360 0.0 12.0 0.00 0.00 0.00 67 1008.0
20260503234931 56 360 3.0 12.0 0.00 0.00 0.00 66 1008.1